Regional Weather Roundup
Issued by NWS Upton, NY

Current Version | Previous Version | Text Only | Print | Product List | Glossary On
Versions: 1 2 3 4 5 6 7 8 9 10 11 12 13 14 15 16 17 18 19 20 21 22 23 24 25 26 27 28 29 30 31 32 33 34 35 36 37 38 39 40 41 42 43 44 45 46 47 48 49 50
000 ASUS41 KOKX 031805 RWROKX REGIONAL WEATHER ROUNDUP NATIONAL WEATHER SERVICE NEW YORK NY 200 PM EDT THU SEP 03 2015 NOTE: "FAIR" INDICATES FEW OR NO CLOUDS BELOW 12,000 FEET WITH NO SIGNIFICANT WEATHER AND/OR OBSTRUCTIONS TO VISIBILITY. NYZ071-072-176-178-NJZ106-104-031900- NEW YORK CITY METRO AREA CITY SKY/WX TMP DP RH WIND PRES REMARKS CENTRAL PARK SUNNY 92 63 38 NE5 29.88F HX 93 LAGUARDIA APRT PTSUNNY 90 64 42 N5 29.84F HX 91 KENNEDY INTL MOSUNNY 91 64 40 CALM 29.85F HX 92 NEWARK/LIBERTY MOSUNNY 93 61 34 N10G18 29.84F HX 93 BRNX BOT. GARD N/A 88 66 48 W3 29.87R HX 90 TETERBORO SUNNY 91 60 35 N12 29.83F HX 90 $$ NYZ177-179-078>081-031900- LONG ISLAND NEW YORK CITY SKY/WX TMP DP RH WIND PRES REMARKS FARMINGDALE SUNNY 91 65 41 NE7 29.85F HX 93 ISLIP MOSUNNY 90 65 43 N8 29.83F HX 92 SHIRLEY PTSUNNY 87 71 58 SE10 29.85F HX 93 WESTHAMPTON MOSUNNY 86 71 60 VRB6 29.86F HX 91 MONTAUK POINT N/A 84 73 69 S5 29.86F HX 90 $$ NYZ052-065-067-031900- HUDSON VALLEY CITY SKY/WX TMP DP RH WIND PRES REMARKS WHITE PLAINS MOSUNNY 90 63 40 N7 29.86F HX 91 NEWBURGH MOSUNNY 88 70 55 VRB6 29.89F HX 92 MONTGOMERY MOSUNNY 90 68 48 VRB6 29.87F HX 94 POUGHKEEPSIE SUNNY 90 65 43 N7 29.85F HX 92 ALBANY PTSUNNY 87 69 54 N5 29.86F HX 91 $$ NJZ001-105-106-008-010-013-015-019>022-104-031900- NEW JERSEY CITY SKY/WX TMP DP RH WIND PRES REMARKS NEWARK/LIBERTY MOSUNNY 93 61 34 N10G18 29.84F HX 93 TETERBORO SUNNY 91 60 35 N12 29.83F HX 90 CALDWELL SUNNY 92 60 34 VRB6 29.86F HX 91 MORRISTOWN MOSUNNY 91 61 35 NE10 29.86F HX 91 SOMERVILLE SUNNY 92 59 33 VRB3 29.84F HX 91 SUSSEX MOSUNNY 87 64 46 CALM 29.88F ANDOVER N/A 86 66 51 NE5 29.89F TRENTON SUNNY 92 56 29 N9 29.85F HX 90 MILLVILLE MOSUNNY 92 64 39 N6 29.86F HX 93 ATLANTIC CITY MOSUNNY 93 63 36 NW10 29.85F HX 94 WRIGHTSTOWN MOSUNNY 88 67 48 N7 29.83F HX 91 TOMS RIVER SUNNY 88 63 42 E3 29.86S BELMAR SUNNY 90 63 40 N6 29.86F HX 90 $$ PAZ047>061-062-071-031900- EASTERN PENNSYLVANIA CITY SKY/WX TMP DP RH WIND PRES REMARKS PHILADELPHIA MOSUNNY 92 62 36 NW8 29.85F HX 92 ALLENTOWN NOT AVBL SCRANTON PTSUNNY 86 67 52 CALM 29.91F $$ CTZ002-004>006-009-010-012-RIZ004-006-007-MAZ004-011-015-031900- SOUTHERN NEW ENGLAND IN CT CITY SKY/WX TMP DP RH WIND PRES REMARKS BRADLEY INTL MOSUNNY 88 66 48 VRB7 29.84F HX 90 HARTFORD SUNNY 89 70 53 NW6 29.84F HX 94 DANBURY SUNNY 88 64 44 N7 29.88F WTRBRY/OXFORD NOT AVBL BRIDGEPORT SUNNY 83 69 62 S7 29.84F MERIDEN MOSUNNY 90 66 45 CALM 29.83F HX 92 NEW HAVEN MOSUNNY 83 69 62 S7 29.84F CHESTER NOT AVBL GROTON SUNNY 80 71 74 S9 29.83F WILLIMANTIC PTSUNNY 88 66 48 VRB6 29.84F HX 90 IN RI CITY SKY/WX TMP DP RH WIND PRES REMARKS PROVIDENCE PTSUNNY 88 67 49 S7 29.83F HX 91 BLOCK ISLAND SUNNY 82 72 69 SW9 29.85F WESTERLY SUNNY 84 67 56 S8 29.84F IN MA CITY SKY/WX TMP DP RH WIND PRES REMARKS BOSTON MOSUNNY 79 66 64 SE9 29.86S WORCESTER SUNNY 83 61 47 VRB7 29.89F WESTFIELD SUNNY 88 64 44 VRB6 29.85F PROVINCETOWN N/A 75 66 73 N8 29.86S NANTUCKET N/A N/A N/A N/A MISG 29.85F $$ ANZ330-335-338-340-345-350-353-355-031900- COASTAL MARINE OBSERVATIONS STATION/POSITION TIME SKY/WX TEMP WIND PRES VSBY WAVE AIR SEA DIR/SP/G HT/PER (UTC) (F) (DEG/KT/KT) (MB) (MI) (FT/S) NY HARB ENTRANCE 1650 78 78 280/ 2/ 4 1010.9 1/ 7 4S FIRE IS NOT AVBL 20S FIRE ISLAND 1650 75 77 30/ 6/ 6 1010.9 2/ 7 GREAT SOUTH BAY 1700 77 81 180/ 6/ 8 N/A 23SW MTP 1750 75 76 270/ 4/ 6 1010.6 2/ 7 HUDSON CANYON NOT AVBL KINGS POINT 1700 84 75 10/ 3/ 5 1010.4 EXECUTION ROCKS 1700 81 140/ 6/ 6 N/A CENTRAL LI SOUND NOT AVBL EASTERN LI SOUND 1700 76 71 220/ 6/ 8 N/A ROBBINS REEF 1700 83 50/ 6/ 7 1009.9 $$ >>>>>>>>>>>>>>>>>>>>>>>>>>>> KEY <<<<<<<<<<<<<<<<<<<<<<<<<<< > < > SKY/WX - SKY CONDITION/PRESENT WEATHER < > TMP - TEMPERATURE IN FAHRENHEIT < > DP - DEWPOINT IN FAHRENHEIT < > RH - RELATIVE HUMIDITY IN PERCENT < > WIND - DIRECTION AND SPEED IN MPH < > PRES - MEAN SEA LEVEL PRESSURE IN INCHES OF HG < > WCI - WIND CHILL INDEX < > VSB - VISIBILITY IN MILES < > HX - HEAT INDEX < > TC - TEMPERATURE IN CELSIUS < > VRB - VARIABLE WIND DIRECTION < > < >>>>>>>>>>>>>>>>>>>>>>>>>>>> KEY <<<<<<<<<<<<<<<<<<<<<<<<<<<

USA.gov is the U.S. government's official web portal to all federal, state and local government web resources and services.